(126069) = 2000 QE182 = 2001 YK82

Discovered at Socorro on 2001-12-18 by LINEAR.

Orbit

Orbit type: Main Belt

Note: WebGL enabled browser required.

epoch2023-09-13.0
epoch JD2460200.5
perihelion date2021-04-14.91736
perihelion JD2459319.41736
argument of perihelion (°)70.50250
ascending node (°)13.54307
inclination (°)2.88325
eccentricity0.0288302
perihelion distance (AU)2.4070361
Tisserand w.r.t. Jupiter3.5
ΔV w.r.t. Earth (km/sec)9.7
semimajor axis (AU)2.4784915
mean anomaly (°)222.55602
mean daily motion (°/day)0.25259380
aphelion distance (AU)2.550
period (years)3.9
P-vector [x]0.10401694
P-vector [y]0.89260637
P-vector [z]0.43867338
Q-vector [x]-0.99450577
Q-vector [y]0.08812225
Q-vector [z]0.05650439
absolute magnitude16.09
phase slope0.15
uncertainty0
referenceMPEC 2024-A34
observations used844
oppositions16
arc length (days)11782
first opposition used1991
last opposition used2023
residual rms (arc-secs)0.77
perturbers coarse indicatorM-v
perturbers precise indicator003Ek
first observation date used1991-04-13.0
last observation date used2023-07-15.0
computer nameMPCLINUX
JD of orbit computation2456937.241209
perihelion JD uncertainty (days)4.0458E-04
argument of perihelion uncertainty (°)1.2724E-04
ascending node uncertainty (°)7.3647E-05
inclination uncertainty (°)3.6650E-06
eccentricity uncertainty 2.8082E-08
perihelion distance uncertainty (AU)6.9280E-08
Minimum Orbit Intersection Distances (in AU)
for orbit epoch: 2460200.5, reference: E2024-A34
Mercury2.08124
Venus1.68779
Earth1.42342
Mars0.77758
Jupiter2.48773
Saturn6.65219
Uranus15.9767
Neptune27.3982

Observations

859 total observations over interval: 1991 04 13.29276 – 2023 07 15.973154
These data are available for download (format description).

Date (UT) J2000 RA J2000 Dec Magn Location Ref
1991 04 13.29276 13 06 44.30 -07 38 50.4 20.4 V 691 – Steward Observatory, Kitt Peak-Spacewatch MPS 78220
1991 04 13.31370 13 06 43.08 -07 38 44.5 20.4 V 691 – Steward Observatory, Kitt Peak-Spacewatch MPS 78220
1991 04 13.33438 13 06 41.89 -07 38 39.2 20.1 V 691 – Steward Observatory, Kitt Peak-Spacewatch MPS 78220
2000 08 29.29607 22 55 38.03 -09 50 19.0 18.0   704 – Lincoln Laboratory ETS, New Mexico MPS 18354
2000 08 29.30950 22 55 37.23 -09 50 22.3 17.7   704 – Lincoln Laboratory ETS, New Mexico MPS 18354
2000 08 29.32294 22 55 36.49 -09 50 27.7 18.1   704 – Lincoln Laboratory ETS, New Mexico MPS 18354
2000 08 29.33642 22 55 35.75 -09 50 30.2 17.9   704 – Lincoln Laboratory ETS, New Mexico MPS 18354
2000 09 03.281520 22 51 02.100 -10 12 54.27 19.14 V 645 – Apache Point-Sloan Digital Sky Survey MPS 80022
2000 09 03.284992 22 51 01.898 -10 12 55.22 20.01   645 – Apache Point-Sloan Digital Sky Survey MPS 80022
2000 09 06.12523 22 48 24.18 -10 25 15.5   808 – El Leoncito MPS 19446
2000 09 06.20732 22 48 19.59 -10 25 41.8 19.1   704 – Lincoln Laboratory ETS, New Mexico MPS 18354
2000 09 06.22037 22 48 18.93 -10 25 46.0 19.1   704 – Lincoln Laboratory ETS, New Mexico MPS 18354
2000 09 06.22720 22 48 18.25 -10 25 42.3   808 – El Leoncito MPS 19446
2000 09 06.23346 22 48 18.16 -10 25 49.2 19.0   704 – Lincoln Laboratory ETS, New Mexico MPS 18354
2001 12 18.31266 07 50 12.73 +25 44 46.0 19.4   644 – Palomar Mountain/NEAT MPS 45518
2001 12 18.32657 07 50 12.09 +25 44 48.5 19.2   644 – Palomar Mountain/NEAT MPS 45518
2001 12 18.34265 07 50 11.37 +25 44 51.8 19.8   644 – Palomar Mountain/NEAT MPS 45518
2001 12 18.45003 07 50 06.36 +25 45 11.6 19.3   704 – Lincoln Laboratory ETS, New Mexico MPS 45518
2001 12 18.46579 07 50 05.66 +25 45 13.6 19.7   704 – Lincoln Laboratory ETS, New Mexico MPS 45518
2001 12 18.48226 07 50 04.92 +25 45 16.8 19.6   704 – Lincoln Laboratory ETS, New Mexico MPS 45518
2001 12 18.49923 07 50 04.15 +25 45 20.1 19.7   704 – Lincoln Laboratory ETS, New Mexico MPS 45518
2001 12 18.51466 07 50 03.45 +25 45 23.1 19.4   704 – Lincoln Laboratory ETS, New Mexico MPS 45518
2001 12 19.46827 07 49 20.91 +25 48 13.1 19.5   704 – Lincoln Laboratory ETS, New Mexico MPS 45518
2001 12 19.48361 07 49 20.16 +25 48 16.2 19.5   704 – Lincoln Laboratory ETS, New Mexico MPS 45518
2001 12 19.49877 07 49 19.43 +25 48 18.7 19.7   704 – Lincoln Laboratory ETS, New Mexico MPS 45518
2001 12 19.51390 07 49 18.76 +25 48 21.9 19.5   704 – Lincoln Laboratory ETS, New Mexico MPS 45518
2001 12 19.52915 07 49 18.03 +25 48 24.6 19.7   704 – Lincoln Laboratory ETS, New Mexico MPS 45518
2001 12 20.265000 07 48 44.462 +25 50 36.33 19.60 V 645 – Apache Point-Sloan Digital Sky Survey MPS 80022
2001 12 20.268472 07 48 44.294 +25 50 36.99 20.49   645 – Apache Point-Sloan Digital Sky Survey MPS 80022
2001 12 20.37803 07 48 38.92 +25 50 58.0 18.3   704 – Lincoln Laboratory ETS, New Mexico MPS 47126
2001 12 20.39315 07 48 38.21 +25 50 59.6 18.8   704 – Lincoln Laboratory ETS, New Mexico MPS 47126
2001 12 20.40841 07 48 37.41 +25 51 03.3 18.4   704 – Lincoln Laboratory ETS, New Mexico MPS 47126
2001 12 20.42424 07 48 36.69 +25 51 06.0 18.3   704 – Lincoln Laboratory ETS, New Mexico MPS 47126
2001 12 20.43949 07 48 35.96 +25 51 09.3 18.5   704 – Lincoln Laboratory ETS, New Mexico MPS 47126
2001 12 24.36459 07 45 18.80 +26 02 58.7 19.5   644 – Palomar Mountain/NEAT MPS 47126
2001 12 24.42933 07 45 15.17 +26 03 10.3 20.6   644 – Palomar Mountain/NEAT MPS 47126
2001 12 24.49544 07 45 11.56 +26 03 21.5 20.6   644 – Palomar Mountain/NEAT MPS 47126
2002 01 08.30246 07 30 02.28 +26 43 46.8 18.4   704 – Lincoln Laboratory ETS, New Mexico MPS 47126
2002 01 08.31737 07 30 01.26 +26 43 48.7 19.1   704 – Lincoln Laboratory ETS, New Mexico MPS 47126
2002 01 08.33228 07 30 00.23 +26 43 51.0 19.2   704 – Lincoln Laboratory ETS, New Mexico MPS 47126
2002 01 08.34719 07 29 59.21 +26 43 52.9 19.3   704 – Lincoln Laboratory ETS, New Mexico MPS 47126
2002 01 08.36212 07 29 58.20 +26 43 54.4 19.3   704 – Lincoln Laboratory ETS, New Mexico MPS 47126
2002 01 14.23444 07 23 26.66 +26 55 38.9 18.8   704 – Lincoln Laboratory ETS, New Mexico MPS 49816
2002 01 14.24954 07 23 25.62 +26 55 40.3 19.2   704 – Lincoln Laboratory ETS, New Mexico MPS 49816
2002 01 14.26466 07 23 24.58 +26 55 41.8 19.2   704 – Lincoln Laboratory ETS, New Mexico MPS 49816
2002 01 14.28377 07 23 23.25 +26 55 43.7 19.1   704 – Lincoln Laboratory ETS, New Mexico MPS 49816
2002 01 14.29910 07 23 22.18 +26 55 45.2 19.2   704 – Lincoln Laboratory ETS, New Mexico MPS 49816
2002 01 17.42853 07 19 56.55 +27 00 37.0 19.0   644 – Palomar Mountain/NEAT MPS 49816
2002 01 17.44959 07 19 55.14 +27 00 38.3 20.0   644 – Palomar Mountain/NEAT MPS 49816
2002 01 17.47173 07 19 53.71 +27 00 40.0 19.2   644 – Palomar Mountain/NEAT MPS 49816
2002 01 21.22795 07 15 56.13 +27 05 07.1 18.8   704 – Lincoln Laboratory ETS, New Mexico MPS 49816
2002 01 21.24272 07 15 55.17 +27 05 08.1 18.8   704 – Lincoln Laboratory ETS, New Mexico MPS 49816
2002 01 21.25755 07 15 54.26 +27 05 08.8 19.2   704 – Lincoln Laboratory ETS, New Mexico MPS 49816
2002 01 21.27234 07 15 53.31 +27 05 09.7 18.9   704 – Lincoln Laboratory ETS, New Mexico MPS 49816
2002 01 21.28724 07 15 52.37 +27 05 09.9 19.6   704 – Lincoln Laboratory ETS, New Mexico MPS 49816
2002 02 04.16862 07 03 41.50 +27 08 44.8 19.7   644 – Palomar Mountain/NEAT MPS 52436
2002 02 04.18992 07 03 40.54 +27 08 44.2 20.1   644 – Palomar Mountain/NEAT MPS 52436
2002 02 04.21127 07 03 39.60 +27 08 43.6 19.9   644 – Palomar Mountain/NEAT MPS 52436
2002 02 06.24026 07 02 18.85 +27 07 41.4 19.6   704 – Lincoln Laboratory ETS, New Mexico MPS 49816
2002 02 06.25530 07 02 18.21 +27 07 42.1 20.1   704 – Lincoln Laboratory ETS, New Mexico MPS 49816
2002 02 06.27025 07 02 17.51 +27 07 41.4 20.1   704 – Lincoln Laboratory ETS, New Mexico MPS 49816
2002 02 06.28555 07 02 16.91 +27 07 38.9 19.8   704 – Lincoln Laboratory ETS, New Mexico MPS 49816
2002 02 06.30043 07 02 16.35 +27 07 39.2 19.6   704 – Lincoln Laboratory ETS, New Mexico MPS 49816
2002 02 07.23255 07 01 42.02 +27 07 04.3 19.4   704 – Lincoln Laboratory ETS, New Mexico MPS 52436
2002 02 07.24704 07 01 41.43 +27 07 04.8 19.7   704 – Lincoln Laboratory ETS, New Mexico MPS 52436
2002 02 07.26128 07 01 40.93 +27 07 03.3 19.6   704 – Lincoln Laboratory ETS, New Mexico MPS 52436
2002 02 07.27549 07 01 40.36 +27 07 02.4 19.5   704 – Lincoln Laboratory ETS, New Mexico MPS 52436
2002 02 07.29221 07 01 39.73 +27 07 01.5 19.8   704 – Lincoln Laboratory ETS, New Mexico MPS 52436
2002 02 10.11538 07 00 06.39 +27 04 47.2 19.4   704 – Lincoln Laboratory ETS, New Mexico MPS 52436
2002 02 10.12971 07 00 05.96 +27 04 46.8 19.3   704 – Lincoln Laboratory ETS, New Mexico MPS 52436
2002 02 10.14404 07 00 05.48 +27 04 46.1 19.2   704 – Lincoln Laboratory ETS, New Mexico MPS 52436
2002 02 12.10011 06 59 10.08 +27 02 52.8 18.8   704 – Lincoln Laboratory ETS, New Mexico MPS 52436
2002 02 12.11430 06 59 09.63 +27 02 52.2 19.4   704 – Lincoln Laboratory ETS, New Mexico MPS 52436
2002 02 12.12850 06 59 09.19 +27 02 52.4 20.3   704 – Lincoln Laboratory ETS, New Mexico MPS 52436
2002 02 12.14271 06 59 08.84 +27 02 50.5 19.4   704 – Lincoln Laboratory ETS, New Mexico MPS 52436
2002 02 12.15693 06 59 08.41 +27 02 50.1 19.6   704 – Lincoln Laboratory ETS, New Mexico MPS 52436
2004 09 08.23111 23 40 03.01 -04 15 13.5 19.8   704 – Lincoln Laboratory ETS, New Mexico MPS 112654
2004 09 08.24256 23 40 02.33 -04 15 16.7 20.2   704 – Lincoln Laboratory ETS, New Mexico MPS 112654
2004 09 08.25406 23 40 01.78 -04 15 20.0 19.3   704 – Lincoln Laboratory ETS, New Mexico MPS 112654
2004 09 08.26549 23 40 01.08 -04 15 23.2 19.9   704 – Lincoln Laboratory ETS, New Mexico MPS 112654
2004 09 08.27701 23 40 00.45 -04 15 26.8 20.0   704 – Lincoln Laboratory ETS, New Mexico MPS 112654
2004 09 09.23230 23 39 09.36 -04 19 51.5 19.3   704 – Lincoln Laboratory ETS, New Mexico MPS 112654
2004 09 09.24369 23 39 08.74 -04 19 53.3 19.5   704 – Lincoln Laboratory ETS, New Mexico MPS 112654
2004 09 09.25509 23 39 08.10 -04 19 57.3 19.8   704 – Lincoln Laboratory ETS, New Mexico MPS 112654
